Regional Weather Roundup
Issued by NWS State College, PA

Home | Current Version | Previous Version | Graphics & Text | Print | Product List | Glossary Off
Versions: 1 2 3 4 5 6 7 8 9 10 11 12 13 14 15 16 17 18 19 20 21 22 23 24 25 26 27 28 29 30 31 32 33 34 35 36 37 38 39 40 41 42 43 44 45 46 47 48 49 50

000
ASUS41 KCTP 171110
RWRCTP

REGIONAL WEATHER ROUNDUP
NATIONAL WEATHER SERVICE STATE COLLEGE PA
700 AM EDT THU APR 17 2014

Note: "fair" indicates few or no clouds below 12,000 feet with no
significant weather and/or obstructions to visibility.

* = STATION THAT DOES NOT REPORT PRECIPITATION /E.G. RAIN...SNOW...ETC/
    THUNDER OR FOG.

PAZ002>004-007>009-013>016-020>023-029>032-171200-
WESTERN PENNSYLVANIA

CITY           SKY/WX    TMP DP  RH WIND       PRES   REMARKS
ERIE           CLEAR     37  15  40 SE22G30   30.40S
MEADVILLE      NOT AVBL
FRANKLIN*      CLEAR     30  14  51 E12       30.45R
NEW CASTLE     FAIR      35  16  46 SE3       30.45R
BEAVER COUNTY  CLEAR     34  18  51 SE8       30.42
BUTLER*        FAIR      34  16  47 E8        30.45R
PITTSBURGH INT MOCLDY    35  18  49 SE8       30.42R
PITTSBURGH     PTCLDY    37  16  42 SE8       30.43R
INDIANA*       PTCLDY    36  18  48 SE12G20   30.47S
LATROBE        PTCLDY    37  18  44 SE9G21    30.46R
WASHINGTON CO* PTCLDY    30  16  55 CALM      30.44R
$$

PAZ004>006-010>012-017>019-024>028-033>037-041-042-045-046-049>053-171200-
CENTRAL PENNSYLVANIA

CITY           SKY/WX    TMP DP  RH WIND       PRES   REMARKS
BRADFORD       CLEAR     27  12  53 SE7       30.46R
DUBOIS         PTCLDY    31  15  52 SE13      30.46R
CLEARFIELD     PTCLDY    27  17  66 NE8       30.52R
JOHNSTOWN      CLEAR     29  14  53 SE13      30.45R
ALTOONA        CLEAR     31  17  56 SE6       30.53R
STATE COLLEGE  CLEAR     32  10  40 E5        30.55R
WILLIAMSPORT   CLEAR     27  20  75 CALM      30.61R
SELINSGROVE    CLEAR     27  22  81 CALM      30.62R
FT INDIANTOWN  NOT AVBL
CAPITAL CITY   CLEAR     32  20  61 E6        30.63R
HARRISBURG     CLEAR     34  19  54 E3        30.62R
YORK           CLEAR     27  22  81 CALM      30.61R
$$

PAZ038>040-043-044-047-048-054-055-060>062-067>071-171200-
EASTERN PENNSYLVANIA

CITY           SKY/WX    TMP DP  RH WIND       PRES   REMARKS
SCRANTON       CLEAR     30  16  56 NE8       30.60R
MOUNT POCONO   CLEAR     26  13  57 E9        30.56R
ALLENTOWN      CLEAR     31  18  58 E7        30.65R
QUAKERTOWN*    CLEAR     32  18  55 CALM      30.64R
READING        CLEAR     32  20  61 N5        30.63R
LANCASTER      CLEAR     30  21  69 NE5       30.62R
COATESVILLE    NOT AVBL
POTTSTOWN      CLEAR     32  18  56 E5        30.65R
BLUE BELL      CLEAR     34  21  60 CALM      30.63R
DOYLESTOWN     CLEAR     31  18  58 NE3       30.64R
WILLOW GROVE   NOT AVBL
NORTH PHILA    CLEAR     35  20  54 NE8       30.66R
PHILADELPHIA   PTCLDY    38  22  52 NE9       30.65R
$$



USA.gov is the U.S. government's official web portal to all federal, state and local government web resources and services.